Weather History for Clinton, BC

Change the Weather History Date:

Thursday, May 23, 2013

  Actual Average Record
Temperature  
Mean Temperature 42 °F -  
Max Temperature 50 °F 59 °F 82 °F (2001)
Min Temperature 33 °F 36 °F 30 °F (1997)
Degree Days  
Heating Degree Days 23    
Moisture  
Dew Point 39 °F    
Average Humidity 89    
Maximum Humidity 100    
Minimum Humidity 49    
Precipitation  
Precipitation 0.08 in - - ()
Sea Level Pressure  
Sea Level Pressure 29.92 in    
Wind  
Wind Speed 6 mph ()    
Max Wind Speed 15 mph    
Max Gust Speed 24 mph    
Visibility 7.3 miles    
Events Rain    
Averages and records for this station are not official NWS values.
T = Trace of Precipitation, MM = Missing Value Source: Averaged Metar Reports

Daily Weather History Graph

Daily Weather History Graph

Search for Another Location

Airport:

Trip Planner

Search our weather history database for the weather conditions in past years. The results will help you decide how hot, cold, wet, or windy it might be!

Date:

Astronomy

May. 23, 2013 Rise Set
Actual Time 5:04 AM PDT 9:01 PM PDT
Civil Twilight 4:21 AM PDT 9:44 PM PDT
Nautical Twilight 3:21 AM PDT 10:45 PM PDT
Astronomical Twilight 1:28 AM PDT 12:52 AM PDT
Moon 7:32 PM PDT (5/23) 4:05 AM PDT (5/23)
Length of Visible Light 17h 23m
Length of Day
15h 57m
Waxing Gibbous, 97% of the Moon is Illuminated
May 23
Waxing Gibbous
May 24
Full
May 31
Last Quarter
Jun 8
New
Jun 16
First Quarter

Hourly Weather History & Observations

Time (PDT) Temp. Windchill Dew Point Humidity Pressure Visibility Wind Dir Wind Speed Gust Speed Precip Events Conditions
12:00 AM 46.4 °F 42.9 °F 44.6 °F 93% 29.89 in 9.0 mi NW 6.9 mph - N/A Rain Light Rain
12:04 AM 46.4 °F 42.9 °F 44.6 °F 93% 29.84 in 9.0 mi NW 6.9 mph - N/A   Scattered Clouds
12:21 AM 44.6 °F - 44.6 °F 100% 29.85 in 9.0 mi Calm Calm - N/A   Overcast
12:25 AM 46.4 °F 45.2 °F 44.6 °F 93% 29.85 in 9.0 mi North 3.5 mph - N/A   Mostly Cloudy
1:00 AM 46.4 °F 43.5 °F 44.6 °F 93% 29.88 in 9.0 mi NNW 5.8 mph - N/A   Mostly Cloudy
2:00 AM 45 °F - 44 °F 93% 29.87 in 9 mi ENE 2.3 mph - -  
2:00 AM 44.6 °F - 44.6 °F 100% 29.87 in 9.0 mi East 2.3 mph - N/A   Mostly Cloudy
2:21 AM 44.6 °F 42.2 °F 42.8 °F 93% 29.85 in 8.0 mi SSE 4.6 mph - N/A   Overcast
2:23 AM 44.6 °F 43.1 °F 42.8 °F 93% 29.85 in 8.0 mi SSE 3.5 mph - N/A   Overcast
2:29 AM 44.6 °F - 44.6 °F 100% 29.84 in 9.0 mi ESE 2.3 mph - N/A   Overcast
2:36 AM 44.6 °F - 44.6 °F 100% 29.85 in 9.0 mi SE 2.3 mph - N/A   Overcast
2:39 AM 44.6 °F - 44.6 °F 100% 29.85 in 9.0 mi SSE 2.3 mph - N/A   Overcast
2:41 AM 44.6 °F 42.2 °F 44.6 °F 100% 29.85 in 8.0 mi SSE 4.6 mph - N/A   Overcast
2:42 AM 44.6 °F 42.2 °F 44.6 °F 100% 29.85 in 2.1 mi SE 4.6 mph - N/A   Overcast
2:43 AM 44.6 °F 42.2 °F 44.6 °F 100% 29.85 in 1.1 mi SE 4.6 mph - N/A   Overcast
2:44 AM 44.6 °F 41.4 °F 44.6 °F 100% 29.85 in 0.8 mi SSE 5.8 mph - N/A   Overcast
2:45 AM 44.6 °F 40.7 °F 44.6 °F 100% 29.85 in 0.6 mi South 6.9 mph - N/A   Overcast
2:47 AM 44.6 °F 40.7 °F 42.8 °F 93% 29.85 in 0.4 mi South 6.9 mph - N/A   Overcast
2:50 AM 44.6 °F 39.7 °F 42.8 °F 93% 29.86 in 0.4 mi South 9.2 mph - N/A Rain Light Rain
2:53 AM 44.6 °F 39.2 °F 42.8 °F 93% 29.86 in 0.4 mi South 10.4 mph - N/A Rain Light Rain
2:55 AM 44.6 °F 38.8 °F 41.0 °F 87% 29.86 in 0.8 mi South 11.5 mph - N/A Rain Light Rain
2:57 AM 44.6 °F 38.8 °F 41.0 °F 87% 29.87 in 2.1 mi South 11.5 mph - N/A Rain Light Rain
3:00 AM 42.8 °F 36.2 °F 41.0 °F 93% 29.91 in 9.0 mi South 12.7 mph - N/A Rain Light Rain
3:11 AM 42.8 °F 37.0 °F 41.0 °F 93% 29.88 in 5.0 mi South 10.4 mph 17.3 mph N/A Rain Rain
3:12 AM 42.8 °F 37.5 °F 41.0 °F 93% 29.88 in 6.0 mi South 9.2 mph 17.3 mph N/A Rain Rain
3:15 AM 42.8 °F 37.5 °F 41.0 °F 93% 29.88 in 9.0 mi South 9.2 mph - N/A Rain Rain
3:20 AM 42.8 °F 38.0 °F 41.0 °F 93% 29.88 in 9.0 mi South 8.1 mph 18.4 mph N/A   Overcast
3:26 AM 41.0 °F 33.5 °F 39.2 °F 93% 29.88 in 9.0 mi South 13.8 mph 24.2 mph N/A Rain Light Rain
3:29 AM 41.0 °F 33.1 °F 39.2 °F 93% 29.88 in 9.0 mi South 15.0 mph 24.2 mph N/A Rain Light Rain
3:31 AM 41.0 °F 34.7 °F 39.2 °F 93% 29.88 in 9.0 mi South 10.4 mph 24.2 mph N/A Rain Light Rain
3:39 AM 41.0 °F 37.1 °F 39.2 °F 93% 29.88 in 7.0 mi SSW 5.8 mph 18.4 mph N/A Rain Light Rain
3:47 AM 41.0 °F 35.2 °F 39.2 °F 93% 29.89 in 9.0 mi South 9.2 mph - N/A Rain Light Rain
3:58 AM 39.2 °F 33.6 °F 37.4 °F 93% 29.90 in 9.0 mi South 8.1 mph - N/A   Mostly Cloudy
4:00 AM 39.2 °F 33.0 °F 37.4 °F 93% 29.94 in 9.0 mi South 9.2 mph - N/A   Overcast
4:07 AM 39.2 °F 33.6 °F 37.4 °F 93% 29.90 in 9.0 mi South 8.1 mph 17.3 mph N/A   Overcast
4:08 AM 39.2 °F 34.2 °F 37.4 °F 93% 29.90 in 9.0 mi South 6.9 mph 17.3 mph N/A   Overcast
4:26 AM 39.2 °F 35.0 °F 37.4 °F 93% 29.91 in 9.0 mi SSE 5.8 mph - N/A   Overcast
4:28 AM 39.2 °F 35.0 °F 37.4 °F 93% 29.91 in 9.0 mi SSE 5.8 mph - N/A   Overcast
4:29 AM 39.2 °F 34.2 °F 37.4 °F 93% 29.91 in 9.0 mi South 6.9 mph - N/A   Overcast
4:38 AM 39.2 °F 34.2 °F 37.4 °F 93% 29.91 in 9.0 mi SSE 6.9 mph - N/A   Overcast
4:49 AM 39.2 °F 33.0 °F 37.4 °F 93% 29.91 in 9.0 mi South 9.2 mph - N/A   Overcast
4:50 AM 39.2 °F 33.6 °F 37.4 °F 93% 29.91 in 9.0 mi South 8.1 mph - N/A   Overcast
5:00 AM 39 °F - 37 °F 91% 29.96 in 9 mi SSE 6.9 mph - -   Unknown Precipitation
5:00 AM 39.2 °F 34.2 °F 37.4 °F 93% 29.96 in 9.0 mi SSE 6.9 mph - N/A   Overcast
5:06 AM 39.2 °F 33.6 °F 37.4 °F 93% 29.91 in 9.0 mi SSE 8.1 mph - N/A   Overcast
5:14 AM 39.2 °F 33.0 °F 37.4 °F 93% 29.92 in 9.0 mi SSE 9.2 mph - N/A   Overcast
5:56 AM 37.4 °F 34.9 °F 35.6 °F 93% 29.92 in 9.0 mi South 3.5 mph - N/A   Mostly Cloudy
6:00 AM 37.4 °F 34.9 °F 37.4 °F 100% 29.97 in 9.0 mi SSE 3.5 mph - N/A   Mostly Cloudy
6:55 AM 39.2 °F 35.0 °F 37.4 °F 93% 29.93 in 9.0 mi SSE 5.8 mph - N/A   Overcast
7:00 AM 39.2 °F 37.0 °F 37.4 °F 93% 29.99 in 9.0 mi SSE 3.5 mph - N/A   Overcast
7:10 AM 39.2 °F 35.9 °F 37.4 °F 93% 29.93 in 9.0 mi SSE 4.6 mph - N/A   Overcast
7:32 AM 39.2 °F 35.0 °F 37.4 °F 93% 29.92 in 2.0 mi SSE 5.8 mph - N/A   Overcast
7:34 AM 39.2 °F 35.9 °F 37.4 °F 93% 29.92 in 1.2 mi South 4.6 mph - N/A   Overcast
7:38 AM 39.2 °F 34.2 °F 37.4 °F 93% 29.92 in 1.0 mi SSE 6.9 mph - N/A   Overcast
7:40 AM 39.2 °F 34.2 °F 37.4 °F 93% 29.92 in 0.6 mi South 6.9 mph - N/A   Overcast
8:00 AM 39 °F - 38 °F 94% 29.97 in 0 mi SSE 4.6 mph - -   Overcast
8:00 AM 39.2 °F 35.9 °F 37.4 °F 93% 29.97 in 0.5 mi South 4.6 mph - N/A   Overcast
8:05 AM 39.2 °F 35.0 °F 37.4 °F 93% 29.91 in 1.0 mi SE 5.8 mph - N/A   Overcast
8:17 AM 39.2 °F 33.6 °F 39.2 °F 100% 29.91 in 3.5 mi SSE 8.1 mph - N/A   Overcast
8:28 AM 39.2 °F 35.9 °F 37.4 °F 93% 29.92 in 9.0 mi SSE 4.6 mph - N/A   Overcast
8:36 AM 39.2 °F 37.0 °F 37.4 °F 93% 29.92 in 9.0 mi SSE 3.5 mph - N/A   Overcast
8:55 AM 39.2 °F 34.2 °F 37.4 °F 93% 29.92 in 9.0 mi SSE 6.9 mph - N/A   Overcast
9:00 AM 39.2 °F 35.0 °F 37.4 °F 93% 29.98 in 9.0 mi South 5.8 mph - N/A   Overcast
9:19 AM 41.0 °F 38.0 °F 39.2 °F 93% 29.91 in 9.0 mi SSE 4.6 mph - N/A   Overcast
9:49 AM 42.8 °F 39.3 °F 39.2 °F 87% 29.91 in 9.0 mi SSE 5.8 mph - N/A   Overcast
9:55 AM 41.0 °F 36.4 °F 39.2 °F 93% 29.91 in 9.0 mi SSE 6.9 mph - N/A   Overcast
10:00 AM 41.0 °F 35.2 °F 37.4 °F 87% 29.96 in 9.0 mi SSE 9.2 mph - N/A   Overcast
11:00 AM 42 °F - 37 °F 75% 29.96 in 9 mi SSE 6.9 mph - -   Overcast
11:00 AM 41.0 °F 35.8 °F 37.4 °F 87% 29.96 in 9.0 mi SSE 8.1 mph - N/A   Overcast
12:00 PM 44.6 °F 40.2 °F 37.4 °F 76% 29.96 in 9.0 mi SE 8.1 mph - N/A   Mostly Cloudy
1:00 PM 46.4 °F 41.9 °F 35.6 °F 66% 29.96 in 9.0 mi South 9.2 mph - N/A   Mostly Cloudy
2:00 PM 47 °F - 35 °F 51% 29.96 in 9 mi South 6.9 mph - -  
2:00 PM 46.4 °F 41.5 °F 35.6 °F 66% 29.96 in 9.0 mi South 10.4 mph - N/A   Clear
3:00 PM 48.2 °F - 35.6 °F 62% 29.98 in 9.0 mi South 9.2 mph - N/A   Mostly Cloudy
4:00 PM 48.2 °F - 35.6 °F 62% 29.99 in 9.0 mi SSE 6.9 mph - N/A   Scattered Clouds
5:00 PM 49 °F - 36 °F 49% 29.98 in 9 mi South 5.8 mph - -  
5:00 PM 50.0 °F - 35.6 °F 58% 29.98 in 9.0 mi South 5.8 mph - N/A   Mostly Cloudy
6:00 PM 50.0 °F - 35.6 °F 58% 29.98 in 9.0 mi South 6.9 mph - N/A   Overcast
7:00 PM 48.2 °F - 35.6 °F 62% 29.98 in 9.0 mi South 5.8 mph - N/A   Partly Cloudy
8:00 PM 46 °F - 36 °F 59% 29.99 in 9 mi South 3.5 mph - -  
8:00 PM 46.4 °F 45.2 °F 35.6 °F 66% 29.99 in 9.0 mi South 3.5 mph - N/A   Mostly Cloudy
9:00 PM 39.2 °F 37.0 °F 35.6 °F 87% 30.00 in 9.0 mi SW 3.5 mph - N/A   Partly Cloudy
10:00 PM 35.6 °F - 32.0 °F 87% 30.01 in 9.0 mi SW 2.3 mph - N/A   Partly Cloudy
11:00 PM 34 °F - 31 °F 86% 30.02 in 9 mi Calm Calm - -  
11:00 PM 33.8 °F - 32.0 °F 93% 30.02 in 9.0 mi Calm Calm - N/A   Clear